JAVIFLY Weather Reports


time (UTC)temp
F
wind
direction
speed
knots
gust
knots
rain 1hr
in
rain 24hr
in
rain mn
in
humidity
%
barometer
mb
20260902070006 57 198 0.0 0.9 0.00 0.00 0.00 88 1027.3
20260902065503 58 0 0.0 0.0 0.00 0.00 0.00 84 1027.0
20260902065003 58 0 0.0 0.0 0.00 0.00 0.00 83 1027.0
20260902064524 58 0 0.0 0.0 0.00 0.00 0.00 85 1027.0
20260902064003 57 0 0.0 0.0 0.00 0.00 0.00 86 1027.1
20260902063503 56 0 0.0 0.0 0.00 0.00 0.00 88 1027.1
20260902063003 55 0 0.0 0.0 0.00 0.00 0.00 93 1027.1
20260902062503 54 0 0.0 0.0 0.00 0.00 0.00 94 1026.8
20260902062003 54 0 0.0 0.0 0.00 0.00 0.00 95 1023.5
20260902061524 53 125 0.0 0.9 0.00 0.00 0.00 96 1023.3
20260902061024 53 113 0.0 1.7 0.00 0.00 0.00 96 1023.3
20260902060503 53 96 0.9 1.7 0.00 0.00 0.00 96 1023.2
20260902060003 53 97 0.9 1.7 0.00 0.00 0.00 96 1023.2
20260902055503 53 101 0.0 1.7 0.00 0.00 0.00 96 1022.9
20260902055003 53 100 0.0 1.7 0.00 0.00 0.00 96 1023.1
20260902054524 53 0 0.0 0.0 0.00 0.00 0.00 96 1023.0
20260902054003 53 0 0.0 0.0 0.00 0.00 0.00 96 1022.9
20260902053503 53 0 0.0 0.0 0.00 0.00 0.00 96 1022.9
20260902053003 53 0 0.0 0.0 0.00 0.00 0.00 95 1022.9
20260902052503 53 0 0.0 0.0 0.00 0.00 0.00 95 1022.9
20260902052024 53 129 0.0 0.9 0.00 0.00 0.00 95 1022.8
20260902051503 54 129 0.0 0.9 0.00 0.00 0.00 95 1022.9
20260902051003 54 113 0.0 0.9 0.00 0.00 0.00 95 1022.5
20260902050503 54 116 0.0 0.9 0.00 0.00 0.00 95 1022.8
20260902050006 54 131 0.0 0.9 0.00 0.00 0.00 95 1022.4
20260902045503 54 129 0.0 0.9 0.00 0.00 0.00 96 1022.5
20260902045003 54 0 0.0 0.0 0.00 0.00 0.00 96 1022.5
20260902044503 54 184 0.0 0.9 0.00 0.00 0.00 95 1022.5
20260902044024 54 224 0.0 0.9 0.00 0.00 0.00 95 1022.6
20260902043503 54 236 0.0 0.9 0.00 0.00 0.00 95 1022.5
20260902043003 54 0 0.0 0.0 0.00 0.00 0.00 95 1022.1
20260902042524 54 0 0.0 0.0 0.00 0.00 0.00 95 1022.5
20260902042003 54 129 0.0 0.9 0.00 0.00 0.00 95 1022.3
20260902041524 54 121 0.0 0.9 0.00 0.00 0.00 95 1022.4
20260902041003 55 122 0.0 0.9 0.00 0.00 0.00 95 1022.2
20260902040503 55 127 0.0 0.9 0.00 0.00 0.00 95 1022.2
20260902040003 55 137 0.0 0.9 0.00 0.00 0.00 95 1022.6
20260902035504 55 137 0.0 0.9 0.00 0.00 0.00 95 1022.5
20260902035003 55 0 0.0 0.0 0.00 0.00 0.00 95 1022.3
20260902034503 55 0 0.0 0.0 0.00 0.00 0.00 95 1022.3
20260902034003 55 0 0.0 0.0 0.00 0.00 0.00 94 1022.3
20260902033524 55 0 0.0 0.0 0.00 0.00 0.00 94 1022.3
20260902033003 55 0 0.0 0.0 0.00 0.00 0.00 94 1022.3
20260902032503 55 133 0.0 0.9 0.00 0.00 0.00 94 1022.5
20260902032024 56 131 0.0 0.9 0.00 0.00 0.00 94 1022.2
20260902031503 56 120 0.0 0.9 0.00 0.00 0.00 94 1022.3
20260902031003 56 120 0.0 0.9 0.00 0.00 0.00 94 1022.2
20260902030503 56 0 0.0 0.0 0.00 0.00 0.00 94 1022.3
20260902030025 56 0 0.0 0.0 0.00 0.00 0.00 94 1022.2
20260902025504 56 0 0.0 0.0 0.00 0.00 0.00 94 1022.2
20260902025003 56 0 0.0 0.0 0.00 0.00 0.00 94 1022.2
20260902024503 56 0 0.0 0.0 0.00 0.00 0.00 94 1022.4
20260902024003 56 0 0.0 0.0 0.00 0.00 0.00 93 1022.1
20260902023503 56 0 0.0 0.0 0.00 0.00 0.00 93 1022.1
20260902023003 56 0 0.0 0.0 0.00 0.00 0.00 93 1022.0
20260902022503 57 0 0.0 0.0 0.00 0.00 0.00 93 1022.1
20260902022003 57 0 0.0 0.0 0.00 0.00 0.00 93 1022.1
20260902021503 57 0 0.0 0.0 0.00 0.00 0.00 92 1022.0
20260902021003 57 0 0.0 0.0 0.00 0.00 0.00 93 1022.4
20260902020503 57 0 0.0 0.0 0.00 0.00 0.00 93 1022.1
20260902020024 57 0 0.0 0.0 0.00 0.00 0.00 93 1022.1
20260902015503 57 0 0.0 0.0 0.00 0.00 0.00 92 1022.1
20260902015004 57 0 0.0 0.0 0.00 0.00 0.00 92 1022.2
20260902014504 58 0 0.0 0.0 0.00 0.00 0.00 92 1022.1
20260902014003 58 107 0.0 0.9 0.00 0.00 0.00 92 1022.0
20260902013503 58 108 0.0 1.7 0.00 0.00 0.00 91 1022.0
20260902013003 58 104 0.9 1.7 0.00 0.00 0.00 91 1022.4
20260902012524 58 97 0.9 1.7 0.00 0.00 0.00 91 1022.2
20260902012003 58 90 0.9 1.7 0.00 0.00 0.00 91 1022.4
20260902011503 59 85 0.0 1.7 0.00 0.00 0.00 90 1022.4
20260902011003 59 0 0.0 0.0 0.00 0.00 0.00 90 1022.2
20260902010503 59 0 0.0 0.0 0.00 0.00 0.00 89 1022.1
20260902010004 60 0 0.0 0.0 0.00 0.00 0.00 89 1022.4
20260902005503 60 0 0.0 0.0 0.00 0.00 0.00 89 1022.3
20260902005003 60 0 0.0 0.0 0.00 0.00 0.00 89 1022.3
20260902004503 59 0 0.0 0.0 0.00 0.00 0.00 91 1022.3
20260902004003 59 0 0.0 0.0 0.00 0.00 0.00 91 1022.3
20260902003503 59 0 0.0 0.0 0.00 0.00 0.00 90 1022.3
20260902003003 59 0 0.0 0.0 0.00 0.00 0.00 90 1022.2
20260902002503 60 118 0.0 0.9 0.00 0.00 0.00 89 1022.0
20260902002003 60 118 0.0 0.9 0.00 0.00 0.00 89 1021.9
20260902001503 60 0 0.0 0.0 0.00 0.00 0.00 89 1022.0
20260902001003 60 0 0.0 0.0 0.00 0.00 0.00 89 1022.0
20260902000503 60 96 0.0 1.7 0.00 0.00 0.00 88 1022.2
20260902000025 61 96 0.0 1.7 0.00 0.00 0.00 87 1022.1
20260901235503 61 95 0.0 1.7 0.00 0.00 0.00 87 1022.0
20260901235003 61 0 0.0 0.0 0.00 0.00 0.00 87 1022.0
20260901234503 61 0 0.0 0.0 0.00 0.00 0.00 88 1021.9
20260901234003 61 0 0.0 0.0 0.00 0.00 0.00 88 1021.9
20260901233503 61 0 0.0 0.0 0.00 0.00 0.00 87 1021.9
20260901233003 61 0 0.0 0.0 0.00 0.00 0.00 87 1021.7
20260901232503 61 0 0.0 0.0 0.00 0.00 0.00 88 1021.7
20260901232003 61 0 0.0 0.0 0.00 0.00 0.00 88 1021.5
20260901231503 61 0 0.0 0.0 0.00 0.00 0.00 88 1021.7
20260901231003 61 0 0.0 0.0 0.00 0.00 0.00 88 1021.7
20260901230503 61 0 0.0 0.0 0.00 0.00 0.00 88 1021.7
20260901230025 61 247 0.0 0.9 0.00 0.00 0.00 88 1021.5
20260901225503 62 229 0.0 0.9 0.00 0.00 0.00 86 1021.6
20260901225024 63 121 0.0 0.9 0.00 0.00 0.00 84 1021.6
20260901224524 63 137 0.0 0.9 0.00 0.00 0.00 84 1021.6
20260901224003 63 108 0.0 0.9 0.00 0.00 0.00 84 1021.6
20260901223503 64 102 0.0 0.9 0.00 0.00 0.00 83 1021.8
20260901223003 63 250 0.0 0.9 0.00 0.00 0.00 86 1021.7
20260901222503 62 277 0.0 1.7 0.00 0.00 0.00 86 1021.6
20260901222003 64 308 0.0 1.7 0.00 0.00 0.00 85 1021.4
20260901221503 64 0 0.0 0.0 0.00 0.00 0.00 84 1021.7
20260901221003 64 0 0.0 0.0 0.00 0.00 0.00 84 1024.4
20260901220503 65 0 0.0 0.0 0.00 0.00 0.00 83 1024.4
20260901220024 66 0 0.0 0.0 0.00 0.00 0.00 81 1024.4
20260901215503 67 198 0.0 0.9 0.00 0.00 0.00 78 1024.3
20260901215024 67 198 0.0 0.9 0.00 0.00 0.00 78 1024.3
20260901214505 67 0 0.0 0.0 0.00 0.00 0.00 79 1024.3
20260901214003 67 0 0.0 0.0 0.00 0.00 0.00 78 1024.2
20260901213503 67 121 0.0 0.9 0.00 0.00 0.00 79 1024.3
20260901213003 66 94 0.0 1.7 0.00 0.00 0.00 79 1024.3
20260901212503 66 72 0.9 2.6 0.00 0.00 0.00 80 1024.2
20260901212003 67 67 0.9 2.6 0.00 0.00 0.00 79 1024.2
20260901211503 67 82 0.0 1.7 0.00 0.00 0.00 78 1024.1
20260901211003 69 219 0.0 1.7 0.00 0.00 0.00 75 1024.0
20260901210524 69 226 0.9 1.7 0.00 0.00 0.00 73 1024.0
20260901210004 70 225 0.9 1.7 0.00 0.00 0.00 71 1024.0
20260901205503 70 231 0.9 1.7 0.00 0.00 0.00 71 1023.9
20260901205003 70 229 0.9 2.6 0.00 0.00 0.00 70 1023.7
20260901204503 71 219 0.9 2.6 0.00 0.00 0.00 69 1023.6
20260901204005 71 224 1.7 5.2 0.00 0.00 0.00 69 1023.7
20260901203503 71 226 1.7 5.2 0.00 0.00 0.00 68 1023.5
20260901203003 71 229 1.7 3.5 0.00 0.00 0.00 68 1023.6
20260901202503 71 240 1.7 3.5 0.00 0.00 0.00 68 1023.4
20260901202003 72 232 1.7 5.2 0.00 0.00 0.00 67 1023.3
20260901201503 72 222 1.7 5.2 0.00 0.00 0.00 67 1023.2
20260901201003 72 218 1.7 5.2 0.00 0.00 0.00 66 1023.1
20260901200524 72 218 2.6 5.2 0.00 0.00 0.00 65 1023.0
20260901200004 73 214 2.6 5.2 0.00 0.00 0.00 64 1023.0
20260901195503 73 206 1.7 5.2 0.00 0.00 0.00 64 1022.8
20260901195003 73 212 1.7 5.2 0.00 0.00 0.00 63 1022.9
20260901194503 73 213 0.9 2.6 0.00 0.00 0.00 63 1022.8
20260901194003 73 209 0.9 2.6 0.00 0.00 0.00 61 1022.4
20260901193503 74 215 0.9 2.6 0.00 0.00 0.00 59 1022.6
20260901193024 74 220 0.9 2.6 0.00 0.00 0.00 58 1022.5
20260901192503 75 219 0.9 3.5 0.00 0.00 0.00 56 1022.1
20260901192003 75 213 1.7 3.5 0.00 0.00 0.00 55 1022.2
20260901191503 76 217 1.7 3.5 0.00 0.00 0.00 54 1022.3
20260901191003 76 218 1.7 5.2 0.00 0.00 0.00 52 1022.0
20260901190503 76 218 1.7 5.2 0.00 0.00 0.00 51 1022.1
20260901190004 77 223 1.7 3.5 0.00 0.00 0.00 50 1022.0
20260901185503 78 230 1.7 3.5 0.00 0.00 0.00 49 1021.8
20260901185003 78 237 2.6 5.2 0.00 0.00 0.00 48 1022.0
20260901184504 79 242 2.6 5.2 0.00 0.00 0.00 47 1018.9
20260901184003 79 250 2.6 6.1 0.00 0.00 0.00 46 1019.0
20260901183503 80 251 3.5 7.0 0.00 0.00 0.00 46 1021.6
20260901183003 80 251 3.5 7.8 0.00 0.00 0.00 45 1021.6
20260901182524 80 254 3.5 7.8 0.00 0.00 0.00 45 1021.6
20260901182024 81 250 2.6 7.0 0.00 0.00 0.00 46 1021.5
20260901181503 81 253 2.6 6.1 0.00 0.00 0.00 46 1021.4
20260901181003 81 260 3.5 7.8 0.00 0.00 0.00 46 1021.5
20260901180503 82 263 4.3 7.8 0.00 0.00 0.00 45 1021.4
20260901180004 82 264 4.3 8.7 0.00 0.00 0.00 45 1021.2
20260901175503 82 263 4.3 8.7 0.00 0.00 0.00 44 1021.3
20260901175004 82 264 4.3 7.8 0.00 0.00 0.00 44 1021.2
20260901174524 83 267 4.3 7.8 0.00 0.00 0.00 44 1021.3
20260901174003 83 266 4.3 9.6 0.00 0.00 0.00 44 1021.5
20260901173503 83 262 5.2 9.6 0.00 0.00 0.00 43 1021.2
20260901173003 83 257 5.2 8.7 0.00 0.00 0.00 43 1021.1
20260901172503 84 255 5.2 9.6 0.00 0.00 0.00 43 1021.1
20260901172024 84 253 5.2 9.6 0.00 0.00 0.00 42 1021.0
20260901171503 85 251 5.2 8.7 0.00 0.00 0.00 42 1021.1
20260901171003 85 247 3.5 7.8 0.00 0.00 0.00 40 1021.1
20260901170503 86 244 2.6 7.0 0.00 0.00 0.00 36 1021.1
20260901170003 85 237 2.6 7.0 0.00 0.00 0.00 37 1020.9
20260901165503 86 222 2.6 6.1 0.00 0.00 0.00 37 1020.9
20260901165004 86 228 2.6 6.1 0.00 0.00 0.00 35 1020.6
20260901164524 86 234 3.5 7.0 0.00 0.00 0.00 34 1020.9
20260901164003 85 235 3.5 7.0 0.00 0.00 0.00 35 1020.9
20260901163503 85 232 2.6 7.0 0.00 0.00 0.00 35 1020.8
20260901163003 87 210 1.7 6.1 0.00 0.00 0.00 34 1020.6
20260901162503 86 207 1.7 3.5 0.00 0.00 0.00 33 1021.1
20260901162003 86 208 1.7 6.1 0.00 0.00 0.00 33 1020.9
20260901161503 86 207 1.7 6.1 0.00 0.00 0.00 31 1020.9
20260901161004 86 229 1.7 6.1 0.00 0.00 0.00 32 1021.0
20260901160503 84 238 2.6 6.1 0.00 0.00 0.00 33 1021.0
20260901160004 85 230 1.7 5.2 0.00 0.00 0.00 32 1021.0
20260901155503 85 232 2.6 6.1 0.00 0.00 0.00 30 1021.1
20260901155003 85 243 2.6 6.1 0.00 0.00 0.00 30 1021.1
20260901154503 84 238 1.7 5.2 0.00 0.00 0.00 32 1020.9
20260901154003 85 224 1.7 3.5 0.00 0.00 0.00 31 1021.0
20260901153503 84 237 1.7 5.2 0.00 0.00 0.00 29 1021.1
20260901153003 83 242 1.7 5.2 0.00 0.00 0.00 31 1021.3
20260901152524 84 258 1.7 5.2 0.00 0.00 0.00 30 1021.0
20260901152003 83 267 2.6 6.1 0.00 0.00 0.00 30 1021.3
20260901151503 84 245 1.7 6.1 0.00 0.00 0.00 31 1021.2
20260901151003 84 233 1.7 6.1 0.00 0.00 0.00 28 1021.4
20260901150524 83 249 2.6 7.0 0.00 0.00 0.00 28 1021.3
20260901150004 83 260 2.6 7.0 0.00 0.00 0.00 30 1021.4
20260901145504 83 240 1.7 6.1 0.00 0.00 0.00 33 1021.4
20260901145003 83 198 0.9 3.5 0.00 0.00 0.00 32 1021.5
20260901144524 82 213 0.9 7.0 0.00 0.00 0.00 34 1021.6
20260901144003 84 239 1.7 7.0 0.00 0.00 0.00 34 1021.5
20260901143503 82 266 1.7 6.1 0.00 0.00 0.00 32 1021.5
20260901143024 82 273 1.7 6.1 0.00 0.00 0.00 35 1021.6
20260901142524 81 263 2.6 6.1 0.00 0.00 0.00 31 1021.6
20260901142024 80 267 2.6 7.0 0.00 0.00 0.00 36 1021.5
20260901141503 82 239 2.6 7.0 0.00 0.00 0.00 37 1021.6
20260901141003 81 237 1.7 5.2 0.00 0.00 0.00 38 1021.7
20260901140503 80 252 2.6 5.2 0.00 0.00 0.00 38 1021.8
20260901140004 80 237 2.6 5.2 0.00 0.00 0.00 39 1021.8
20260901135504 80 236 1.7 5.2 0.00 0.00 0.00 39 1021.9
20260901135003 80 205 1.7 6.1 0.00 0.00 0.00 37 1022.0
20260901134503 80 182 1.7 6.1 0.00 0.00 0.00 39 1021.9
20260901134003 80 129 1.7 6.1 0.00 0.00 0.00 40 1022.1
20260901133524 78 126 1.7 6.1 0.00 0.00 0.00 42 1022.2
20260901133004 78 148 1.7 7.0 0.00 0.00 0.00 41 1022.4
20260901132525 80 184 1.7 7.0 0.00 0.00 0.00 41 1022.4
20260901132003 80 219 1.7 5.2 0.00 0.00 0.00 41 1022.5
20260901131503 79 202 0.9 3.5 0.00 0.00 0.00 40 1022.6
20260901131003 80 172 0.9 3.5 0.00 0.00 0.00 42 1022.5
20260901130503 78 178 0.9 2.6 0.00 0.00 0.00 42 1022.9
20260901130003 77 281 0.9 2.6 0.00 0.00 0.00 43 1022.9
20260901125503 77 248 1.7 5.2 0.00 0.00 0.00 45 1022.9
20260901125024 77 248 1.7 5.2 0.00 0.00 0.00 44 1023.1
20260901124504 75 260 1.7 5.2 0.00 0.00 0.00 42 1023.3
20260901124003 76 281 2.6 6.1 0.00 0.00 0.00 46 1023.2
20260901123503 76 283 1.7 6.1 0.00 0.00 0.00 46 1023.2
20260901123003 76 149 0.9 2.6 0.00 0.00 0.00 46 1023.3
20260901122503 76 162 0.9 3.5 0.00 0.00 0.00 48 1023.3
20260901122004 76 184 0.9 3.5 0.00 0.00 0.00 49 1023.4
20260901121503 76 174 0.9 3.5 0.00 0.00 0.00 49 1023.4
20260901121025 75 173 0.9 2.6 0.00 0.00 0.00 50 1023.4
20260901120503 74 174 0.9 2.6 0.00 0.00 0.00 49 1020.1
20260901120004 74 152 1.7 2.6 0.00 0.00 0.00 51 1020.1
20260901115503 73 152 1.7 2.6 0.00 0.00 0.00 54 1020.0
20260901115003 74 166 0.9 2.6 0.00 0.00 0.00 51 1020.1
20260901114503 72 165 0.9 3.5 0.00 0.00 0.00 53 1020.2
20260901114003 72 141 1.7 3.5 0.00 0.00 0.00 54 1020.2
20260901113524 72 125 0.9 2.6 0.00 0.00 0.00 55 1020.3
20260901113003 73 151 0.0 2.6 0.00 0.00 0.00 53 1020.5
20260901112503 71 188 0.9 2.6 0.00 0.00 0.00 57 1020.5
20260901112003 70 4 0.9 2.6 0.00 0.00 0.00 59 1020.6
20260901111503 71 347 0.9 2.6 0.00 0.00 0.00 58 1020.5
20260901111004 72 168 0.9 2.6 0.00 0.00 0.00 57 1020.6
20260901110503 71 166 0.9 2.6 0.00 0.00 0.00 56 1020.9
20260901110004 70 156 0.9 2.6 0.00 0.00 0.00 57 1021.2
20260901105503 69 166 0.9 2.6 0.00 0.00 0.00 60 1020.9
20260901105003 69 198 0.9 2.6 0.00 0.00 0.00 59 1024.7
20260901104503 69 205 0.9 2.6 0.00 0.00 0.00 63 1024.7
20260901104003 69 191 0.9 1.7 0.00 0.00 0.00 62 1024.7
20260901103503 67 225 0.9 3.5 0.00 0.00 0.00 63 1025.0
20260901103003 67 237 0.9 3.5 0.00 0.00 0.00 65 1021.3
20260901102504 67 218 0.9 2.6 0.00 0.00 0.00 64 1021.4
20260901102003 65 215 0.9 2.6 0.00 0.00 0.00 68 1021.4
20260901101524 65 183 0.9 1.7 0.00 0.00 0.00 70 1021.4
20260901101024 64 216 0.9 2.6 0.00 0.00 0.00 70 1021.5
20260901100503 63 236 0.9 2.6 0.00 0.00 0.00 72 1021.5
20260901100004 62 238 0.9 1.7 0.00 0.00 0.00 75 1021.4
20260901095504 63 252 0.9 1.7 0.00 0.00 0.00 76 1025.2
20260901095003 63 245 0.9 2.6 0.00 0.00 0.00 76 1025.2
20260901094503 63 211 0.9 3.5 0.00 0.00 0.00 76 1025.3
20260901094003 64 147 0.9 3.5 0.00 0.00 0.00 73 1025.1
20260901093503 63 128 0.0 2.6 0.00 0.00 0.00 75 1025.3
20260901093003 63 158 0.0 1.7 0.00 0.00 0.00 74 1025.2
20260901092503 64 156 0.9 3.5 0.00 0.00 0.00 73 1025.2
20260901092003 61 141 0.9 3.5 0.00 0.00 0.00 75 1025.3
20260901091503 62 124 1.7 2.6 0.00 0.00 0.00 74 1025.3
20260901091003 61 107 1.7 2.6 0.00 0.00 0.00 76 1025.2
20260901090503 61 106 0.9 2.6 0.00 0.00 0.00 78 1025.4
20260901090004 60 148 0.9 2.6 0.00 0.00 0.00 77 1025.4
20260901085503 60 155 0.9 2.6 0.00 0.00 0.00 77 1025.5
20260901085003 61 148 0.9 2.6 0.00 0.00 0.00 78 1025.3
20260901084503 60 168 0.9 2.6 0.00 0.00 0.00 77 1025.3
20260901084003 60 181 0.0 1.7 0.00 0.00 0.00 79 1025.4
20260901083503 59 181 0.0 0.9 0.00 0.00 0.00 80 1025.4
20260901083003 58 196 0.0 1.7 0.00 0.00 0.00 83 1025.3
20260901082503 59 189 0.0 1.7 0.00 0.00 0.00 83 1025.3
20260901082003 59 200 0.0 1.7 0.00 0.00 0.00 82 1025.2
20260901081504 59 220 0.9 1.7 0.00 0.00 0.00 83 1025.1
20260901081003 59 222 0.9 1.7 0.00 0.00 0.00 82 1025.2
20260901080503 58 219 0.0 1.7 0.00 0.00 0.00 83 1025.1
20260901080003 58 216 0.9 1.7 0.00 0.00 0.00 83 1025.1
20260901075503 58 222 0.9 1.7 0.00 0.00 0.00 83 1025.3
20260901075003 58 227 0.9 2.6 0.00 0.00 0.00 82 1025.0
20260901074503 59 233 0.0 2.6 0.00 0.00 0.00 81 1025.1
20260901074024 60 0 0.0 0.0 0.00 0.00 0.00 78 1025.0
20260901073503 60 0 0.0 0.0 0.00 0.00 0.00 79 1024.6
20260901073024 58 0 0.0 0.0 0.00 0.00 0.00 80 1024.6
20260901072524 57 0 0.0 0.0 0.00 0.00 0.00 84 1024.9
20260901072024 57 0 0.0 0.0 0.00 0.00 0.00 84 1024.7
20260901071503 58 0 0.0 0.0 0.00 0.00 0.00 81 1024.6
20260901071003 57 0 0.0 0.0 0.00 0.00 0.00 84 1024.7
20260901070524 55 0 0.0 0.0 0.00 0.00 0.00 87 1025.0